Narsarsuaq, Greenland

11:04 PM -02 on May 25, 2018 (GMT -0200)
Narsarsuaq

Weather History for BGBW - June, 2014

Change the Weather History Date:

Sunday, June 8, 2014

  Actual Average Record
Temperature  
Mean Temperature 50 °F -  
Max Temperature 57 °F 57 °F 70 °F (2016)
Min Temperature 42 °F 42 °F 33 °F (1999)
Degree Days  
Heating Degree Days 16    
Moisture  
Dew Point 42 °F    
Average Humidity 74    
Maximum Humidity 100    
Minimum Humidity 46    
Precipitation  
Precipitation 0.00 in 0.07 in - ()
Sea Level Pressure  
Sea Level Pressure 30.00 in    
Wind  
Wind Speed 5 mph ()    
Max Wind Speed 12 mph    
Max Gust Speed -    
Visibility 8.5 miles    
Events Fog    
Averages and records for this station are not official NWS values.
T = Trace of Precipitation, MM = Missing Value Source: Averaged Metar Reports

Daily Weather History Graph

Daily Weather History Graph

Search for Another Location

Airport or City:

Astronomy

Jun. 08, 2014 Rise Set
Actual Time 3:29 AM -02 10:33 PM -02
Civil Twilight 1:13 AM -02 12:28 AM -02
Nautical Twilight Sun does not set Sun does not set
Astronomical Twilight Sun does not set Sun does not set
Moon 4:17 PM -02 (6/8) 1:55 AM -02 (6/8)
Length of Visible Light 23h 14m
Length of Day
19h 03m
Waxing Gibbous, 76% of the Moon is Illuminated
Jun 8
Waxing Gibbous
Jun 13
Full
Jun 19
Last Quarter
Jun 27
New
Jul 5
First Quarter

Hourly Weather History & Observations

Time (-02) Temp. Windchill Dew Point Humidity Pressure Visibility Wind Dir Wind Speed Gust Speed Precip Events Conditions
12:00 AM 46 °F - 43 °F 85% 30.00 in 31 mi ESE 3.5 mph - -   Overcast
1:00 AM 45 °F - 43 °F 90% 30.00 in 11 mi ENE 4.6 mph - -   Overcast
2:00 AM 43 °F - 41 °F 92% 30.00 in 4 mi ENE 4.6 mph - -   Mist
3:00 AM 42 °F - 41 °F 96% 29.99 in 1 mi ENE 4.6 mph - -   Mist
4:00 AM 43 °F - 41 °F 92% 29.99 in 1 mi ENE 4.6 mph - -   Mist
5:00 AM 44 °F - 43 °F 96% 30.00 in 1 mi NE 2.3 mph - - Fog Fog
5:50 AM 42.8 °F 40.1 °F 42.8 °F 100% 29.98 in 5.0 mi ENE 4.6 mph - N/A Fog Patches of Fog
6:00 AM 43 °F - 42 °F 95% 30.00 in 28 mi NE 3.5 mph - -   Clear
6:50 AM 44.6 °F 42.2 °F 42.8 °F 93% 30.01 in 5.6 mi NE 4.6 mph - N/A Fog Patches of Fog
7:00 AM 44 °F - 42 °F 89% 30.01 in 28 mi NE 4.6 mph - -   Clear
7:50 AM 46.4 °F - 44.6 °F 93% 30.01 in 6.2 mi WSW 2.3 mph - N/A Fog Patches of Fog
8:00 AM 46 °F - 44 °F 88% 30.01 in 25 mi WSW 2.3 mph - -   Clear
8:50 AM 46.4 °F 44.3 °F 44.6 °F 93% 30.01 in 6.2 mi SW 4.6 mph - N/A Fog Patches of Fog
9:00 AM 46 °F - 44 °F 91% 30.01 in 25 mi WSW 3.5 mph - -   Clear
9:50 AM 48.2 °F - 44.6 °F 87% 30.01 in 6.2 mi West 3.5 mph - N/A   Scattered Clouds
10:00 AM 49 °F - 44 °F 78% 30.01 in 25 mi West 2.3 mph - -  
10:50 AM 50.0 °F - 42.8 °F 76% 30.01 in 6.2 mi SW 6.9 mph - N/A   Scattered Clouds
11:00 AM 50 °F - 42 °F 67% 30.01 in 22 mi SW 8.1 mph - -  
11:50 AM 51.8 °F - 42.8 °F 71% 30.01 in 6.2 mi WSW 8.1 mph - N/A   Mostly Cloudy
12:00 PM 52 °F - 42 °F 59% 30.01 in 19 mi WSW 8.1 mph - -   Mostly Cloudy
12:50 PM 53.6 °F - 42.8 °F 67% 29.98 in 6.2 mi WSW 8.1 mph - N/A   Mostly Cloudy
1:00 PM 55 °F - 42 °F 50% 30.00 in 22 mi WSW 8.1 mph - -   Scattered Clouds
1:50 PM 53.6 °F - 42.8 °F 67% 29.98 in 6.2 mi WSW 8.1 mph - N/A   Mostly Cloudy
2:00 PM 54 °F - 41 °F 50% 30.00 in 18 mi WSW 6.9 mph - -   Partly Cloudy
2:50 PM 53.6 °F - 42.8 °F 67% 29.98 in 6.2 mi WSW 9.2 mph - N/A   Mostly Cloudy
3:00 PM 54 °F - 42 °F 53% 29.99 in 19 mi WSW 9.2 mph - -   Overcast
3:50 PM 55.4 °F - 42.8 °F 63% 29.98 in 6.2 mi SW 9.2 mph - N/A   Scattered Clouds
4:00 PM 56 °F - 41 °F 47% 29.99 in 19 mi WSW 10.4 mph - -  
5:00 PM 56 °F - 41 °F 47% 29.99 in 28 mi WSW 10.4 mph - -   Partly Cloudy
6:00 PM 56 °F - 41 °F 46% 29.99 in 19 mi WSW 10.4 mph - -   Scattered Clouds
7:00 PM 56 °F - 41 °F 46% 29.99 in 28 mi SW 10.4 mph - -  
8:00 PM 54 °F - 41 °F 51% 30.00 in 25 mi WSW 11.5 mph - -  
9:00 PM 52 °F - 42 °F 58% 30.01 in 28 mi West 5.8 mph - -   Scattered Clouds
10:00 PM 50 °F - 41 °F 63% 30.01 in 28 mi SW 5.8 mph - -   Mostly Cloudy
11:00 PM 47 °F - 40 °F 71% 30.01 in 25 mi ENE 3.5 mph - -